Address 0x897d599f1501ac17026792fc411fd490024a0bac

 
 
Txn Hash
Block
From
To
Value [Txn Fee]
0x08adff882f333af03c83b270415a5b3d14a21f3cebb43beba4e43f49e9c664fb95056522021-07-26 22:43:121 hr 52 mins ago0x897d599f1501ac17026792fc411fd490024a0bacSELF0x897d599f1501ac17026792fc411fd490024a0bac0 BNB0.001440839083
0x26e380f45a664d6c1faee87d4010feaad19fd1a05184574fdc65f461a26ad03194203962021-07-23 22:38:333 days 1 hr ago0x897d599f1501ac17026792fc411fd490024a0bacOUT 0xae4b47b8e005f0c6aa55bd0e2790a80e6e6028430 BNB0.001493285785
0x30f2f00d388d183343fd508022d199420f95da3be485db5038186768ab562f9793362292021-07-21 0:21:466 days 13 mins ago0x897d599f1501ac17026792fc411fd490024a0bacOUT 0xae4b47b8e005f0c6aa55bd0e2790a80e6e6028430 BNB0.006121900989
0x5bbe8b9cfda657d53346ba2b51e8a9e0f421feafd8b37ec65c6fe6d842d1a65893346602021-07-20 23:03:196 days 1 hr ago0x897d599f1501ac17026792fc411fd490024a0bacOUT 0xae4b47b8e005f0c6aa55bd0e2790a80e6e6028430 BNB0.006482258595
0x7f3030ee1b45e0ef07cd28af6956ba963285b1e58285c6407e0fdb73c5305aa493210382021-07-20 11:41:526 days 12 hrs ago0x897d599f1501ac17026792fc411fd490024a0bacOUT 0xae4b47b8e005f0c6aa55bd0e2790a80e6e6028430 BNB0.00331308325
0x64b1aa02ff1cef6181341eea68ca23cd9c95da60014cc6c39d6928a21c7e03c993166512021-07-20 8:02:316 days 16 hrs ago0x897d599f1501ac17026792fc411fd490024a0bacOUT 0xae4b47b8e005f0c6aa55bd0e2790a80e6e6028430 BNB0.00348066
0x88a50e8d132a2cb82aaae9f3cc04c0749848fe479490711bee3efe40f8a6e05993139362021-07-20 5:46:466 days 18 hrs ago0x897d599f1501ac17026792fc411fd490024a0bacOUT 0xae4b47b8e005f0c6aa55bd0e2790a80e6e6028430 BNB0.00348817788
0x4dd8eb8ecc2f5a000bc298ecf3fdf247cf06629849671300caf2c2fedb950ec393094432021-07-20 2:01:296 days 22 hrs ago0x897d599f1501ac17026792fc411fd490024a0bacOUT 0xae4b47b8e005f0c6aa55bd0e2790a80e6e6028430 BNB0.009251614442
0x235e78bc05c040e65ea120f30ed5e909d26389bd0d16e79232e07f1ff9719da593053332021-07-19 22:35:597 days 1 hr ago0x55aa756f925ddf49b4afdc1d836987779d8c5adf IN 0x897d599f1501ac17026792fc411fd490024a0bac0.305315185880432 BNB0.000106319705
0xe7d4fba46aeab69bf94d39b44400b4d8cbd095350e25d70788bb2c940c3e3d1a93051592021-07-19 22:27:177 days 2 hrs ago0x897d599f1501ac17026792fc411fd490024a0bacOUT 0xae4b47b8e005f0c6aa55bd0e2790a80e6e6028430 BNB0.000698310582
0x2ecbe75c1122032242f7b323c2c3efc395381e1844132df90b1fabfbf6feae8793049672021-07-19 22:17:417 days 2 hrs ago0x897d599f1501ac17026792fc411fd490024a0bacOUT 0xae4b47b8e005f0c6aa55bd0e2790a80e6e6028430 BNB0.00058011
0xd133512d2dec4dec94a904e8f901190b55e94d54d8d4bacf5e3ea569efd9743f93048952021-07-19 22:14:057 days 2 hrs ago0x897d599f1501ac17026792fc411fd490024a0bacSELF0x897d599f1501ac17026792fc411fd490024a0bac0 BNB0.0002362521
0xf0d7aee85800e41a8a9638bbc1faf4f140749be1f82409d66c3a1586e5026b3c93045632021-07-19 21:57:297 days 2 hrs ago0x897d599f1501ac17026792fc411fd490024a0bacOUT 0xae4b47b8e005f0c6aa55bd0e2790a80e6e6028430 BNB0.00057987
0x274c7b7300e97a97490b54e61e46c90144be4f9663040c5af3879a8bcb75092893045012021-07-19 21:54:237 days 2 hrs ago0x897d599f1501ac17026792fc411fd490024a0bacOUT 0xae4b47b8e005f0c6aa55bd0e2790a80e6e6028430 BNB0.00115974
0x9b7e9f82080fe0ec7f58be4c44ce5d80c005d7e2e7e49603e75c417d90ff1f7d93042972021-07-19 21:44:117 days 2 hrs ago0x897d599f1501ac17026792fc411fd490024a0bacOUT 0xae4b47b8e005f0c6aa55bd0e2790a80e6e6028430 BNB0.000548765
0x4ba9c33e17dd9181d6df557382659da5bdc585c6f8c70d3b1e0431980b4e90ae93042442021-07-19 21:41:327 days 2 hrs ago0x897d599f1501ac17026792fc411fd490024a0bacOUT 0xae4b47b8e005f0c6aa55bd0e2790a80e6e6028430 BNB0.00116022
0x0f14dd6d66323dde9fca9a82413e11fa51bbb70ab6ae35dc6a04f2d5d88ceb3b93040832021-07-19 21:33:297 days 3 hrs ago0x897d599f1501ac17026792fc411fd490024a0bacOUT 0xae4b47b8e005f0c6aa55bd0e2790a80e6e6028430 BNB0.001276242
0x6d3b497e25fe89c4628565a85b79cb7b6b7cb8ea551757bfd6c4d25a0e3bbbc693037352021-07-19 21:16:057 days 3 hrs ago0x897d599f1501ac17026792fc411fd490024a0bacOUT 0xae4b47b8e005f0c6aa55bd0e2790a80e6e6028430 BNB0.00124143
0xf37ea4e224a38954ca758d82abbc8238e302b6db6c313707211a7dd09731322193036092021-07-19 21:09:477 days 3 hrs ago0x897d599f1501ac17026792fc411fd490024a0bacOUT 0xae4b47b8e005f0c6aa55bd0e2790a80e6e6028430 BNB0.00060436
0xf3649b310fe9ce5919c96fc6037bba55755bdfb439361520ef56789a336c7f6d93035582021-07-19 21:07:147 days 3 hrs ago0x897d599f1501ac17026792fc411fd490024a0bacOUT 0xae4b47b8e005f0c6aa55bd0e2790a80e6e6028430 BNB0.000543775
0xf3b69fb64125bedeb5a95cb46ae4eddc428abec8b77f917c53d3aa8bab5098d593035082021-07-19 21:04:447 days 3 hrs ago0x897d599f1501ac17026792fc411fd490024a0bacSELF0x897d599f1501ac17026792fc411fd490024a0bac0 BNB0.00035437815
0x6ef4e2a6804a78b2db45afe11c371b93e769be25cbf2af78e0aa7689a14f109193034552021-07-19 21:02:057 days 3 hrs ago0x897d599f1501ac17026792fc411fd490024a0bacOUT 0xae4b47b8e005f0c6aa55bd0e2790a80e6e6028430 BNB0.000618515
0x3c880354666e583aecbd77b3d641c36fd7f44f0a5e207cd43bda6d44261d25d993031552021-07-19 20:47:057 days 3 hrs ago0x897d599f1501ac17026792fc411fd490024a0bacOUT 0xae4b47b8e005f0c6aa55bd0e2790a80e6e6028430 BNB0.000620775
0x127e3d98179e00db41755f50a9e0022ebfa663f847f57370ff2bf63d2384183c93031082021-07-19 20:44:447 days 3 hrs ago0x897d599f1501ac17026792fc411fd490024a0bacOUT 0xae4b47b8e005f0c6aa55bd0e2790a80e6e6028430 BNB0.00058979
0xa43cb90c3809928c08175bf1e92b896fa02ec1237a345d14b16e18dfe3f07a7b93030682021-07-19 20:42:447 days 3 hrs ago0x897d599f1501ac17026792fc411fd490024a0bacOUT 0xae4b47b8e005f0c6aa55bd0e2790a80e6e6028430 BNB0.00074493
[ Download CSV Export 
Parent Txn Hash Block From To Value
Loading

Contract Name:
0 BNB

Compiler Version
0

Optimization Enabled:
0 BNB

Other Settings:
-NA-
Block Transaction Gas Used Reward
Age Block Fee Address BC Fee Address Voting Power Jailed Incoming
Block Uncle Number Difficulty Gas Used Reward
Loading
Loading
Make sure to use the "Vote Down" button for any spammy posts, and the "Vote Up" for interesting conversations.